Tracking 29892 objects as of 21-Nov-2024
HD Live streaming from Space Station
objects crossing your sky now

OBSERVER-1A

Track OBSERVER-1A now!
10-day predictions


NORAD ID: 58323
Int'l Code: 2023-174BV
Perigee: 496.8 km
Apogee: 512.9 km
Inclination: 97.4 °
Period: 94.6 minutes
Semi major axis: 6875 km
RCS: Unknown
Launch date: November 11, 2023
Source: (KOR)
Launch site: AIR FORCE WESTERN TEST RANGE (AFWTR)
Your satellite tracking list
Your tracking list is empty




NASA's NSSDC Master Catalog

Two Line Element Set (TLE):
1 58323U 23174BV  24326.19605786  .00010012  00000-0  43177-3 0  9996
2 58323  97.4496  39.1452 0011711  36.8224 323.3814 15.22684809 57553
Source of the keplerian elements: AFSPC